格洛纳斯M-744 COSMOS 2476 [GLONASS-M]

导读 | 星芒AI

COSMOS 2476 是一颗俄罗斯 GLONASS-M 系列导航卫星,于2014年1月23日由质子-M火箭从拜科努尔航天发射场发射升空。该卫星属于GLONASS全球卫星导航系统的一部分,用于提供高精度的定位、导航和时间同步服务。GLONASS-M卫星相比早期型号具有更长的使用寿命和更高的精度,COSMOS 2476 在轨运行后增强了俄罗斯在全球导航领域的覆盖能力与可靠性。

基本信息
目录编号:
37867
目录名称:
COSMOS 2476 (GLONASS)
国际标识:
2011-064A
轨道中心:
EARTH
卫星名称:
格洛纳斯M-744
卫星全名:
格洛纳斯M-744 COSMOS 2476 [GLONASS-M]
卫星状态:
在轨 (已飞行5111 天)
发射日期:
2011-11-04 UTC
国别 :
俄罗斯(独联体) (CIS)
星等 :
--
轨道信息
数据来源 国际轨道数据 AOE轨道数据
星历时间 2025-11-01T00:18:30+0800
16小时前
查看轨道信息
2025-10-28T00:00:00+0800
4天前
查看轨道信息
半长轴 25508.081km 25508.073km
偏心率 0.0023014 0.0022928
轨道倾角 65.140° 65.137°
近地点辐角 231.116° 230.788°
升交点赤经 80.594° 80.730°
平近点角 309.636° 111.465°
近地点 19071.241km 19071.453km
远地点 19188.651km 19188.423km
周期 675.735分钟 675.735分钟
每日圈数 2.131013 2.131014
详细信息
平衡模式:
三轴稳定
覆盖范围:
全球
运营商:
列舍特涅夫卫星信息系统
运营商所在国:
俄罗斯
制造商(研发单位):
列舍特涅夫卫星信息系统
制造商所在国:
俄罗斯
使用方式:
暂无
卫星简介
格洛纳斯(GLONASS )是苏联/俄罗斯研制卫星导航系统。标准配置为24颗卫星,其中18颗卫星就能保证该系统为俄罗斯境内用户提供全部服务。该卫星仍在工作。
2D轨道图
3D轨道图
轨道高度分析图
轨道倾角分析图
轨道综合分析图
查看轨道综合分析图